STARLINK-11625, 63109

Orbit data source: Space-Track

STARLINK-11625, 63109 is a payload satellite owned by SpaceX/Seattle (US) in LEO that was launched on Thu, 27 Feb 2025 UTC via an FALCON 9 launch vehicle from the Air Force Eastern Test Range (AFETR). Payload-class satellites include a variety of spacecraft equipped with specific instruments for various scientific and technological missions. These include communications satellites like Starlink; space stations such as the ISS; scientific satellites like the Hubble; Earth observation satellites from companies like Planet Labs, Umbra, and HawkEye 360; GPS; miniature CubeSats for education and research; and military/defense satellites.

Loading next visibility...
Identifier
63109, 2025-039F
Orbit
LEO
Country
Flag of USUS
Related business
Manufacturer
SpaceX/Seattle
Mission
Operational Commercial Communications
Bus & Motor
STARLINK V2MD, Unknown motor
Mass
960 kg wet, ~910 kg dry
Launch date (UTC)
2025-02-27 (10 months ago)
Launch vehicle
FALCON 9
Launch site
Air Force Eastern Test Range (AFETR)
Object type
Payload
Rocket body
Debris
Shape & HBR
Box + 2 Pan, 18.1 m
Radar Cross Section
36.964 m², Large (>1 m²)

Expand to show TLE details & history
Last TLE update: 7 hours ago

TLE from 7 hours ago
0 STARLINK-11625
1 63109U 25039F   25351.35322605  .00180519  00000-0  13752-2 0  9994
2 63109  42.9991  13.3605 0001089 236.2034 123.8731 15.70923044 46663
Epoch: 2025-12-17T08:28Z
TLE epoch observation values (Epoch: 2025-12-17T08:28:38.730Z)
Latitude
0.00004°
Longitude
159.97486°
Altitude
356.437 km
Speed
7.697 km/s
True Right ascension
00h 53m 26s
True Declination
0° 00' 00"
Sunlit
Object was in daylight at epoch
Visualization orbit readout
Latitude
Unknown
Longitude
Unknown
Altitude
Unknown
Speed
Unknown
Apparent Right ascension
Unknown
Apparent Declination
Unknown
Sunlit
N/A
Visualization observer readout
Local Sidereal Time
14:17:38
Azimuth
Unknown
Elevation
Unknown
Doppler factor
Unknown
Orbital elements
Apogee altitude
358.973 km
Perigee altitude
357.506 km
Semi-major axis
6,736.377 km
Eccentricity
0.00011
Inclination
42.9991°
RAAN
13.3605°
Arg. of periapsis
236.2034°
True anomaly
123.88346°
Mean anomaly
123.8731°
Eccentric anomaly
123.87828°
Mean motion
3.92558 °/min
Orbital period
91.71 mins
BSTAR
0.0013752
Loading maneuver chart data...
Computing Atmospheric mass density...
Loading historical data...
Loading historical data...
Loading historical data...
Loading historical data...
Loading historical data...
Loading historical data...
Loading historical data...

Documentation

Showing up to 5 results
|